period_start,C,m1,H,J0,J1,J2,J3,J4,J5,JA,JB,JC,JD,JJ,JK,JN,#
2017-11-19 00:01:02,-0.00,1.24,0.00,19.95,23.50,26.80,14.26,48.28,1023.45,2043.76,2921.94,2827.99,3146.99,600.17,606.28,28.77,0000 0000 0000 0000 000000
2017-11-19 00:06:03,0.03,1.24,0.00,19.91,23.50,26.80,14.17,48.19,1023.45,2043.91,2921.17,2827.93,3146.78,599.87,606.32,28.82,0000 0000 0000 0000 000000
2017-11-19 00:11:05,0.04,1.24,0.00,19.93,23.49,26.79,14.26,48.18,1023.46,2043.95,2920.92,2827.33,3146.10,600.35,606.77,28.87,0000 0000 0000 0000 000000
2017-11-19 00:16:06,0.02,1.25,0.00,19.92,23.47,26.79,14.26,48.27,1023.45,2043.96,2920.13,2827.04,3146.00,600.57,606.91,28.92,0000 0000 0000 0000 000000
2017-11-19 00:21:07,0.02,1.25,0.00,19.90,23.47,26.78,14.18,48.42,1023.45,2043.97,2919.63,2827.00,3145.56,599.70,606.01,28.97,0000 0000 0000 0000 000000
2017-11-19 00:26:08,0.02,1.25,0.00,19.87,23.47,26.75,14.21,48.23,1023.46,2043.98,2919.01,2826.78,3145.02,599.75,606.27,29.02,0000 0000 0000 0000 000000
2017-11-19 00:31:10,0.03,1.25,0.00,19.88,23.45,26.74,14.25,48.37,1023.45,2043.98,2918.34,2826.11,3144.99,600.17,606.61,29.07,0000 0000 0000 0000 000000
2017-11-19 00:36:11,0.02,1.25,0.00,19.86,23.45,26.72,14.17,48.25,1023.46,2043.98,2917.98,2826.01,3144.44,599.81,606.29,29.12,0000 0000 0000 0000 000000
2017-11-19 00:41:12,0.02,1.25,0.00,19.86,23.43,26.73,14.19,48.29,1023.47,2043.99,2917.32,2825.94,3144.01,599.54,606.02,29.17,0000 0000 0000 0000 000000
2017-11-19 00:46:14,0.03,1.25,0.00,19.85,23.42,26.73,14.18,48.33,1023.48,2043.98,2916.91,2825.29,3143.73,599.88,606.40,29.22,0000 0000 0000 0000 000000
2017-11-19 00:51:15,0.02,1.25,0.00,19.83,23.42,26.69,14.24,48.26,1023.70,2043.99,2916.15,2825.01,3143.07,599.75,606.52,29.27,0000 0000 0000 0000 000000
2017-11-19 00:56:17,0.01,1.26,0.00,19.81,23.40,26.70,14.26,48.35,1023.87,2043.99,2915.84,2824.99,3143.00,599.84,606.63,29.32,0000 0000 0000 0000 000000
2017-11-19 01:01:18,0.03,1.26,0.00,19.81,23.40,26.67,14.19,48.31,1023.94,2043.99,2915.06,2824.82,3142.46,599.84,606.76,29.37,0000 0000 0000 0000 000000
2017-11-19 01:06:19,0.03,1.26,0.00,19.80,23.37,26.68,14.24,48.33,1023.94,2043.99,2914.52,2824.15,3142.02,599.59,606.57,29.42,0000 0000 0000 0000 000000
2017-11-19 01:11:21,0.03,1.26,0.00,19.77,23.37,26.66,14.24,48.25,1023.94,2043.99,2913.40,2823.96,3141.45,600.05,606.86,29.47,0000 0000 0000 0000 000000
2017-11-19 01:16:22,0.02,1.26,0.00,19.77,23.37,26.66,14.22,48.25,1023.94,2043.99,2912.94,2823.62,3141.00,599.75,606.66,29.52,0000 0000 0000 0000 000000
2017-11-19 01:21:24,0.03,1.26,0.00,19.76,23.35,26.65,14.19,48.36,1023.94,2043.99,2912.11,2823.05,3140.83,599.71,606.81,29.57,0000 0000 0000 0000 000000
2017-11-19 01:26:25,0.02,1.26,0.00,19.73,23.35,26.64,14.24,48.24,1023.94,2043.99,2911.72,2822.99,3140.09,600.13,607.23,29.62,0000 0000 0000 0000 000000
2017-11-19 01:31:26,0.01,1.27,0.00,19.73,23.33,26.64,14.26,48.47,1023.94,2043.99,2911.04,2822.81,3139.99,599.86,606.92,29.67,0000 0000 0000 0000 000000
2017-11-19 01:36:28,0.04,1.27,0.00,19.69,23.32,26.61,14.30,48.38,1023.94,2043.99,2910.40,2822.18,3139.61,600.28,607.46,29.72,0000 0000 0000 0000 000000
2017-11-19 01:41:29,0.01,1.27,0.00,19.67,23.30,26.59,14.25,48.34,1023.94,2044.00,2909.90,2822.01,3139.02,600.04,607.20,29.77,0000 0000 0000 0000 000000
2017-11-19 01:46:30,0.01,1.27,0.00,19.67,23.29,26.59,14.21,48.41,1023.94,2044.00,2909.08,2821.97,3138.91,600.00,607.15,29.82,0000 0000 0000 0000 000000
2017-11-19 01:51:31,0.05,1.27,0.00,19.66,23.28,26.58,14.24,48.39,1023.94,2044.02,2908.55,2821.48,3138.15,599.97,607.15,29.87,0000 0000 0000 0000 000000
2017-11-19 01:56:32,0.01,1.27,0.00,19.66,23.27,26.58,14.23,48.38,1023.94,2044.02,2907.98,2821.03,3138.00,599.79,606.91,29.92,0000 0000 0000 0000 000000
2017-11-19 02:01:33,0.03,1.27,0.00,19.63,23.26,26.55,14.25,48.45,1023.94,2044.02,2907.18,2820.99,3137.57,600.34,607.48,29.97,0000 0000 0000 0000 000000
2017-11-19 02:06:35,0.03,1.28,0.00,19.63,23.24,26.51,14.34,48.47,1023.96,2044.03,2906.61,2820.59,3137.01,600.40,607.65,30.02,0000 0000 0000 0000 000000
2017-11-19 02:11:36,0.02,1.28,0.00,19.64,23.24,26.54,14.31,48.34,1023.97,2044.06,2905.97,2820.04,3136.82,599.95,607.18,30.07,0000 0000 0000 0000 000000
2017-11-19 02:16:38,0.03,1.28,0.00,19.62,23.22,26.51,14.22,48.36,1023.96,2044.08,2905.18,2820.00,3136.09,599.95,607.33,30.12,0000 0000 0000 0000 000000
2017-11-19 02:21:39,0.05,1.28,0.00,19.61,23.22,26.48,14.23,48.43,1023.98,2044.23,2904.52,2819.79,3135.98,600.00,607.35,30.17,0000 0000 0000 0000 000000
2017-11-19 02:26:40,0.08,1.28,0.00,19.59,23.20,26.49,14.16,48.41,1023.96,2044.74,2903.99,2819.24,3135.44,599.87,607.21,30.22,0000 0000 0000 0000 000000
2017-11-19 02:31:41,0.02,1.29,0.00,19.59,23.19,26.48,14.31,48.49,1023.95,2044.85,2903.25,2819.00,3135.01,600.24,607.53,30.27,0000 0000 0000 0000 000000
2017-11-19 02:36:42,0.03,1.29,0.00,19.57,23.17,26.49,14.30,48.47,1023.95,2044.93,2902.61,2818.88,3134.88,600.24,607.63,30.32,0000 0000 0000 0000 000000
2017-11-19 02:41:43,0.04,1.29,0.00,19.56,23.17,26.49,14.26,48.42,1023.95,2044.93,2901.80,2818.12,3134.11,600.01,607.52,30.37,0000 0000 0000 0000 000000
2017-11-19 02:46:45,0.02,1.29,0.00,19.53,23.15,26.46,14.23,48.50,1023.97,2044.97,2900.98,2817.99,3133.87,599.79,607.28,30.42,0000 0000 0000 0000 000000
2017-11-19 02:51:46,0.04,1.29,0.00,19.52,23.14,26.46,14.22,48.49,1023.97,2044.98,2900.16,2817.59,3133.11,599.95,607.45,30.47,0000 0000 0000 0000 000000
2017-11-19 02:56:47,0.02,1.30,0.00,19.52,23.12,26.44,14.21,48.45,1024.18,2044.99,2899.61,2817.04,3132.95,599.93,607.53,30.52,0000 0000 0000 0000 000000
2017-11-19 03:01:49,0.02,1.30,0.00,19.48,23.12,26.41,14.30,48.62,1024.32,2044.99,2898.85,2816.98,3132.17,600.20,607.80,30.57,0000 0000 0000 0000 000000
2017-11-19 03:06:50,0.04,1.30,0.00,19.46,23.10,26.37,14.22,48.49,1024.22,2044.99,2898.03,2816.30,3131.92,599.72,607.53,30.62,0000 0000 0000 0000 000000
2017-11-19 03:11:52,0.03,1.30,0.00,19.45,23.08,26.38,14.27,48.45,1024.29,2044.99,2897.33,2816.02,3131.21,600.10,607.89,30.67,0000 0000 0000 0000 000000
2017-11-19 03:16:53,0.01,1.30,0.00,19.44,23.07,26.36,14.27,48.39,1024.36,2044.99,2896.65,2815.99,3130.97,600.16,608.10,30.72,0000 0000 0000 0000 000000
2017-11-19 03:21:54,0.04,1.30,0.00,19.42,23.05,26.37,14.33,48.46,1024.38,2044.99,2895.95,2815.57,3130.23,600.37,608.33,30.77,0000 0000 0000 0000 000000
2017-11-19 03:26:55,0.02,1.31,0.00,19.39,23.04,26.30,14.17,48.50,1024.42,2044.99,2895.11,2815.03,3129.96,599.55,607.52,30.82,0000 0000 0000 0000 000000
2017-11-19 03:31:57,0.03,1.31,0.00,19.40,23.02,26.30,14.24,48.47,1024.42,2045.01,2894.28,2814.98,3129.17,599.97,607.99,30.87,0000 0000 0000 0000 000000
2017-11-19 03:36:58,0.04,1.31,0.00,19.38,23.01,26.31,14.24,48.58,1024.43,2045.03,2893.54,2814.27,3128.92,599.64,607.67,30.92,0000 0000 0000 0000 000000
2017-11-19 03:41:59,0.02,1.31,0.00,19.36,22.99,26.30,14.22,48.51,1024.43,2045.03,2892.82,2814.00,3128.15,599.89,607.97,30.97,0000 0000 0000 0000 000000
2017-11-19 03:47:01,0.03,1.31,0.00,19.33,22.98,26.26,14.20,48.60,1024.43,2045.05,2892.04,2813.67,3127.85,599.78,607.95,31.02,0000 0000 0000 0000 000000
2017-11-19 03:52:02,0.04,1.32,0.00,19.31,22.96,26.25,14.30,48.57,1024.43,2045.07,2891.30,2813.05,3127.09,600.30,608.42,31.07,0000 0000 0000 0000 000000
2017-11-19 03:57:03,0.04,1.32,0.00,19.30,22.94,26.24,14.27,48.58,1024.43,2045.21,2890.71,2812.98,3126.89,600.01,608.21,31.12,0000 0000 0000 0000 000000
2017-11-19 04:02:05,0.08,1.32,0.00,19.26,22.93,26.21,14.25,48.51,1024.43,2045.60,2889.94,2812.38,3126.07,599.95,608.31,31.17,0000 0000 0000 0000 000000
2017-11-19 04:07:06,0.02,1.32,0.00,19.26,22.92,26.19,14.31,48.61,1024.43,2045.56,2889.05,2811.99,3125.51,599.95,608.39,31.22,0000 0000 0000 0000 000000
2017-11-19 04:12:07,0.05,1.33,0.00,19.27,22.89,26.17,14.26,48.60,1024.43,2045.63,2888.16,2811.36,3124.96,599.80,607.97,31.27,0000 0000 0000 0000 000000
2017-11-19 04:17:08,0.04,1.33,0.00,19.23,22.88,26.18,14.24,48.63,1024.43,2045.71,2887.41,2810.99,3124.19,599.94,608.27,31.32,0000 0000 0000 0000 000000
2017-11-19 04:22:09,0.07,1.33,0.00,19.24,22.87,26.15,14.23,48.58,1024.43,2045.91,2886.63,2810.44,3123.73,599.89,608.24,31.37,0000 0000 0000 0000 000000
2017-11-19 04:27:10,0.02,1.33,0.00,19.21,22.84,26.13,14.25,48.83,1024.43,2045.96,2885.92,2810.01,3123.06,600.06,608.42,31.42,0000 0000 0000 0000 000000
2017-11-19 04:32:12,0.05,1.34,0.00,19.20,22.83,26.13,14.27,48.57,1024.44,2045.98,2885.08,2809.61,3122.61,599.97,608.40,31.47,0000 0000 0000 0000 000000
2017-11-19 04:37:13,0.03,1.34,0.00,19.15,22.81,26.14,14.26,48.68,1024.44,2045.98,2884.25,2809.02,3122.01,599.86,608.50,31.53,0000 0000 0000 0000 000000
2017-11-19 04:42:15,0.05,1.34,0.00,19.14,22.79,26.13,14.28,48.58,1024.45,2045.98,2883.29,2808.67,3121.31,599.93,608.42,31.58,0000 0000 0000 0000 000000
2017-11-19 04:47:16,0.03,1.34,0.00,19.11,22.77,26.07,14.21,48.50,1024.47,2045.99,2882.55,2808.03,3120.94,599.99,608.63,31.63,0000 0000 0000 0000 000000
2017-11-19 04:52:17,0.03,1.34,0.00,19.09,22.76,26.07,14.29,48.63,1024.57,2045.99,2881.76,2807.90,3120.11,599.88,608.54,31.68,0000 0000 0000 0000 000000
2017-11-19 04:57:18,0.05,1.35,0.00,19.09,22.74,26.06,14.31,48.52,1024.79,2045.99,2880.81,2807.09,3119.71,599.84,608.65,31.73,0000 0000 0000 0000 000000
2017-11-19 05:02:20,0.03,1.35,0.00,19.08,22.72,26.01,14.29,48.43,1024.71,2046.01,2879.98,2806.82,3119.02,599.93,608.77,31.78,0000 0000 0000 0000 000000
2017-11-19 05:07:21,0.05,1.35,0.00,19.06,22.70,26.02,14.22,48.50,1024.72,2046.01,2879.10,2806.07,3118.34,599.81,608.72,31.83,0000 0000 0000 0000 000000
2017-11-19 05:12:22,0.04,1.35,0.00,19.05,22.69,26.00,14.30,48.67,1024.79,2046.02,2878.32,2805.77,3117.79,599.71,608.65,31.88,0000 0000 0000 0000 000000
2017-11-19 05:17:23,0.04,1.36,0.00,19.04,22.67,25.99,14.23,48.58,1024.69,2046.06,2877.51,2805.05,3117.05,599.78,608.92,31.93,0000 0000 0000 0000 000000
2017-11-19 05:22:25,0.06,1.36,0.00,19.01,22.65,25.99,14.26,48.56,1024.75,2046.12,2876.53,2804.71,3116.43,600.06,609.07,31.98,0000 0000 0000 0000 000000
2017-11-19 05:27:26,0.05,1.36,0.00,18.97,22.63,25.90,14.27,48.69,1024.90,2046.39,2875.68,2804.04,3115.95,599.97,609.10,32.03,0000 0000 0000 0000 000000
2017-11-19 05:32:27,0.07,1.36,0.00,18.97,22.62,25.91,14.25,48.66,1024.92,2046.77,2874.89,2803.88,3115.15,599.81,609.00,32.08,0000 0000 0000 0000 000000
2017-11-19 05:37:28,0.06,1.37,0.00,18.95,22.60,25.89,14.25,48.69,1024.92,2046.96,2873.99,2803.10,3114.70,599.99,609.32,32.13,0000 0000 0000 0000 000000
2017-11-19 05:42:29,0.04,1.37,0.00,18.92,22.58,25.91,14.28,48.73,1024.91,2046.96,2873.10,2802.76,3114.01,599.87,609.19,32.18,0000 0000 0000 0000 000000
2017-11-19 05:47:31,0.05,1.37,0.00,18.92,22.57,25.88,14.36,48.72,1024.91,2046.97,2872.18,2802.05,3113.27,600.30,609.39,32.23,0000 0000 0000 0000 000000
2017-11-19 05:52:32,0.04,1.37,0.00,18.90,22.54,25.89,14.30,48.85,1024.91,2046.98,2871.34,2801.69,3112.77,599.81,609.08,32.28,0000 0000 0000 0000 000000
2017-11-19 05:57:34,0.04,1.38,0.00,18.87,22.53,25.87,14.24,48.67,1024.91,2046.98,2870.47,2801.02,3112.02,600.05,609.37,32.33,0000 0000 0000 0000 000000
2017-11-19 06:02:35,0.04,1.38,0.00,18.88,22.52,25.84,14.30,48.67,1024.92,2046.99,2869.67,2800.74,3111.37,600.07,609.45,32.38,0000 0000 0000 0000 000000
2017-11-19 06:07:36,0.03,1.38,0.00,18.88,22.49,25.84,14.25,48.68,1024.91,2046.99,2868.76,2800.06,3110.84,599.80,609.18,32.43,0000 0000 0000 0000 000000
2017-11-19 06:12:37,0.04,1.38,0.00,18.84,22.48,25.81,14.31,48.77,1024.91,2046.99,2867.87,2799.74,3110.06,600.11,609.45,32.48,0000 0000 0000 0000 000000
2017-11-19 06:17:38,0.04,1.39,0.00,18.84,22.47,25.79,14.30,48.77,1024.92,2046.99,2866.97,2799.04,3109.43,600.10,609.51,32.53,0000 0000 0000 0000 000000
2017-11-19 06:22:39,0.05,1.39,0.00,18.82,22.44,25.74,14.24,48.70,1024.92,2046.99,2866.02,2798.44,3108.82,600.06,609.63,32.58,0000 0000 0000 0000 000000
2017-11-19 06:27:40,0.03,1.39,0.00,18.78,22.43,25.75,14.33,48.73,1024.87,2046.99,2865.08,2798.00,3108.06,600.09,609.72,32.63,0000 0000 0000 0000 000000
2017-11-19 06:32:41,0.06,1.39,0.00,18.76,22.41,25.71,14.34,48.73,1024.91,2046.99,2864.12,2797.26,3107.25,599.82,609.52,32.68,0000 0000 0000 0000 000000
2017-11-19 06:37:43,0.03,1.40,0.00,18.75,22.39,25.70,14.31,48.68,1024.92,2046.99,2863.10,2796.93,3106.74,600.07,609.82,32.73,0000 0000 0000 0000 000000
2017-11-19 06:42:44,0.05,1.40,0.00,18.73,22.38,25.73,14.34,48.66,1024.92,2046.99,2862.18,2796.14,3106.00,599.84,609.51,32.78,0000 0000 0000 0000 000000
2017-11-19 06:47:46,0.04,1.40,0.00,18.72,22.36,25.68,14.24,48.67,1024.92,2047.01,2861.24,2795.91,3105.30,599.38,609.10,32.83,0000 0000 0000 0000 000000
2017-11-19 06:52:47,0.06,1.40,0.00,18.73,22.34,25.67,14.26,48.67,1024.92,2047.01,2860.16,2795.10,3104.70,600.02,609.86,32.89,0000 0000 0000 0000 000000
2017-11-19 06:57:48,0.03,1.41,0.00,18.68,22.32,25.65,14.33,48.68,1024.92,2047.02,2859.19,2794.79,3104.00,600.04,609.85,32.94,0000 0000 0000 0000 000000
2017-11-19 07:02:49,0.06,1.41,0.00,18.68,22.31,25.63,14.34,48.70,1024.92,2047.11,2858.23,2794.06,3103.22,599.94,609.70,32.99,0000 0000 0000 0000 000000
2017-11-19 07:07:51,0.05,1.41,0.00,18.65,22.29,25.61,14.37,48.70,1024.92,2047.21,2857.21,2793.73,3102.68,600.17,610.04,33.04,0000 0000 0000 0000 000000
2017-11-19 07:12:52,0.05,1.41,0.00,18.64,22.27,25.63,14.17,48.72,1024.92,2047.38,2856.25,2793.04,3101.99,599.15,609.01,33.09,0000 0000 0000 0000 000000
2017-11-19 07:17:53,0.08,1.42,0.00,18.64,22.26,25.59,14.26,48.74,1024.92,2047.71,2855.25,2792.77,3101.21,599.70,609.53,33.14,0000 0000 0000 0000 000000
2017-11-19 07:22:54,0.05,1.42,0.00,18.64,22.24,25.55,14.32,48.80,1024.92,2047.86,2854.30,2792.07,3100.60,599.86,609.64,33.19,0000 0000 0000 0000 000000
2017-11-19 07:27:56,0.04,1.42,0.00,18.60,22.22,25.55,14.30,48.70,1024.92,2047.95,2853.27,2791.85,3099.97,600.21,610.18,33.24,0000 0000 0000 0000 000000
2017-11-19 07:32:57,0.05,1.43,0.00,18.60,22.22,25.53,14.27,48.66,1024.93,2047.99,2852.31,2791.08,3099.18,600.29,610.35,33.29,0000 0000 0000 0000 000000
2017-11-19 07:37:59,0.04,1.43,0.00,18.59,22.19,25.51,14.34,48.87,1024.92,2047.98,2851.27,2790.74,3098.59,599.64,609.67,33.34,0000 0000 0000 0000 000000
2017-11-19 07:43:00,0.04,1.43,0.00,18.55,22.18,25.51,14.34,48.81,1024.92,2047.99,2850.21,2790.04,3097.90,600.14,610.21,33.39,0000 0000 0000 0000 000000
2017-11-19 07:48:01,0.05,1.43,0.00,18.53,22.17,25.50,14.32,48.79,1024.92,2047.99,2849.14,2789.61,3097.08,599.55,609.72,33.44,0000 0000 0000 0000 000000
2017-11-19 07:53:03,0.04,1.44,0.00,18.52,22.15,25.51,14.36,48.73,1024.92,2048.00,2848.07,2789.02,3096.42,600.00,610.12,33.49,0000 0000 0000 0000 000000
2017-11-19 07:58:04,0.05,1.44,0.00,18.50,22.14,25.48,14.31,48.88,1024.92,2048.01,2846.98,2788.56,3095.86,599.78,610.04,33.54,0000 0000 0000 0000 000000
2017-11-19 08:03:05,0.04,1.44,0.00,18.49,22.12,25.44,14.29,48.83,1024.92,2048.01,2845.84,2788.00,3095.04,599.86,609.94,33.59,0000 0000 0000 0000 000000
2017-11-19 08:08:06,0.07,1.44,0.00,18.48,22.10,25.44,14.32,48.84,1024.92,2048.04,2844.68,2787.46,3094.28,600.08,610.24,33.64,0000 0000 0000 0000 000000
2017-11-19 08:13:08,0.04,1.45,0.00,18.48,22.09,25.42,14.33,48.91,1024.92,2048.06,2843.49,2786.97,3093.44,600.12,610.15,33.69,0000 0000 0000 0000 000000
2017-11-19 08:18:09,0.07,1.45,0.00,18.47,22.07,25.39,14.35,48.89,1024.92,2048.22,2842.38,2786.25,3092.86,600.08,610.29,33.74,0000 0000 0000 0000 000000
2017-11-19 08:23:10,0.08,1.46,0.00,18.47,22.06,25.38,14.30,48.92,1024.92,2048.64,2841.32,2785.98,3092.06,599.87,610.10,33.80,0000 0000 0000 0000 000000
2017-11-19 08:28:11,0.07,1.46,0.00,18.44,22.04,25.39,14.32,48.91,1024.92,2048.90,2840.16,2785.28,3091.33,600.09,610.35,33.85,0000 0000 0000 0000 000000
2017-11-19 08:33:13,0.05,1.46,0.00,18.42,22.03,25.36,14.32,48.87,1024.93,2048.95,2838.93,2784.85,3090.56,600.02,610.35,33.90,0000 0000 0000 0000 000000
2017-11-19 08:38:14,0.06,1.47,0.00,18.43,22.02,25.34,14.28,48.85,1024.93,2048.97,2837.59,2784.05,3089.79,599.98,610.26,33.95,0000 0000 0000 0000 000000
2017-11-19 08:43:15,0.05,1.47,0.00,18.40,21.99,25.34,14.29,48.88,1024.96,2048.98,2836.34,2783.62,3088.96,599.99,610.37,34.00,0000 0000 0000 0000 000000
2017-11-19 08:48:16,0.05,1.47,0.00,18.41,21.98,25.32,14.33,48.89,1024.97,2048.98,2835.00,2782.89,3088.10,600.09,610.56,34.05,0000 0000 0000 0000 000000
2017-11-19 08:53:18,0.07,1.47,0.00,18.43,21.97,25.32,14.26,48.82,1025.21,2048.99,2833.70,2782.07,3087.24,599.89,610.35,34.10,0000 0000 0000 0000 000000
2017-11-19 08:58:19,0.06,1.48,0.00,18.39,21.96,25.29,14.37,48.89,1025.21,2048.99,2832.53,2781.55,3086.41,600.04,610.54,34.15,0000 0000 0000 0000 000000
2017-11-19 09:03:20,0.04,1.48,0.00,18.37,21.94,25.24,14.33,48.82,1025.01,2048.99,2831.32,2780.96,3085.60,599.71,610.19,34.20,0000 0000 0000 0000 000000
2017-11-19 09:08:21,0.06,1.48,0.00,18.36,21.93,25.27,14.38,48.87,1025.17,2048.99,2830.14,2780.17,3084.77,600.18,610.79,34.25,0000 0000 0000 0000 000000
2017-11-19 09:13:22,0.06,1.49,0.00,18.36,21.92,25.26,14.31,48.84,1025.24,2049.00,2828.93,2779.64,3083.85,599.97,610.62,34.30,0000 0000 0000 0000 000000
2017-11-19 09:18:24,0.05,1.49,0.00,18.36,21.91,25.24,14.36,48.77,1025.08,2049.00,2827.70,2779.01,3083.03,600.05,610.80,34.35,0000 0000 0000 0000 000000
2017-11-19 09:23:25,0.07,1.49,0.00,18.31,21.89,25.23,14.34,48.92,1024.96,2049.02,2826.59,2778.22,3082.17,599.92,610.52,34.40,0000 0000 0000 0000 000000
2017-11-19 09:28:26,0.04,1.49,0.00,18.30,21.88,25.24,14.30,48.92,1024.93,2049.02,2825.44,2777.75,3081.37,599.65,610.25,34.45,0000 0000 0000 0000 000000
2017-11-19 09:33:27,0.05,1.50,0.00,18.30,21.87,25.20,14.43,48.89,1024.92,2049.10,2824.35,2777.01,3080.61,599.94,610.51,34.50,0000 0000 0000 0000 000000
2017-11-19 09:38:28,0.07,1.50,0.00,18.28,21.85,25.21,14.32,48.93,1024.92,2049.07,2823.15,2776.22,3079.73,600.23,610.74,34.55,0000 0000 0000 0000 000000
2017-11-19 09:43:29,0.04,1.50,0.00,18.27,21.84,25.18,14.33,48.86,1024.87,2049.14,2821.99,2775.76,3078.89,600.04,610.57,34.60,0000 0000 0000 0000 000000
2017-11-19 09:48:30,0.10,1.51,0.00,18.27,21.82,25.21,14.27,48.98,1024.77,2049.54,2820.90,2775.04,3078.07,599.69,610.28,34.65,0000 0000 0000 0000 000000
2017-11-19 09:53:32,0.08,1.51,0.00,18.24,21.82,25.15,14.39,48.78,1024.54,2049.68,2819.78,2774.38,3077.28,600.28,610.88,34.71,0000 0000 0000 0000 000000
2017-11-19 09:58:33,0.06,1.52,0.00,18.24,21.80,25.17,14.34,48.89,1024.45,2049.85,2818.69,2773.86,3076.44,600.12,610.57,34.76,0000 0000 0000 0000 000000
2017-11-19 10:03:34,0.06,1.52,0.00,18.22,21.79,25.16,14.34,48.96,1024.44,2049.93,2817.63,2773.07,3075.76,600.52,610.95,34.81,0000 0000 0000 0000 000000
2017-11-19 10:08:35,0.05,1.52,0.00,18.16,21.78,25.14,14.37,48.98,1024.43,2049.98,2816.59,2772.58,3074.92,600.19,610.79,34.86,0000 0000 0000 0000 000000
2017-11-19 10:13:36,0.04,1.53,0.00,18.19,21.77,25.14,14.35,48.98,1024.43,2049.98,2815.59,2771.93,3074.04,600.27,610.73,34.91,0000 0000 0000 0000 000000
2017-11-19 10:18:38,0.06,1.53,0.00,18.14,21.76,25.08,14.29,49.10,1024.43,2049.98,2814.50,2771.09,3073.11,599.85,610.55,34.96,0000 0000 0000 0000 000000
2017-11-19 10:23:39,0.06,1.53,0.00,18.15,21.74,25.10,14.33,49.15,1024.43,2049.99,2813.41,2770.48,3072.36,599.81,610.48,35.01,0000 0000 0000 0000 000000
2017-11-19 10:28:40,0.04,1.53,0.00,18.12,21.73,25.08,14.27,49.02,1024.43,2049.99,2812.36,2769.91,3071.56,599.60,610.22,35.06,0000 0000 0000 0000 000000
2017-11-19 10:33:41,0.05,1.54,0.00,18.11,21.72,25.08,14.35,49.05,1024.43,2049.99,2811.24,2769.08,3070.81,600.25,610.98,35.11,0000 0000 0000 0000 000000
2017-11-19 10:38:43,0.06,1.54,0.00,18.08,21.69,25.05,14.41,49.08,1024.42,2049.99,2810.14,2768.44,3070.01,600.41,611.18,35.16,0000 0000 0000 0000 000000
2017-11-19 10:43:44,0.04,1.54,0.00,18.09,21.68,25.03,14.40,49.04,1024.43,2049.99,2809.08,2767.93,3069.13,599.95,610.66,35.21,0000 0000 0000 0000 000000
2017-11-19 10:48:46,0.06,1.55,0.00,18.04,21.67,25.02,14.32,49.14,1024.41,2050.01,2807.98,2767.10,3068.36,599.94,610.82,35.26,0000 0000 0000 0000 000000
2017-11-19 10:53:47,0.07,1.55,0.00,18.06,21.65,25.03,14.33,49.08,1024.25,2050.02,2806.84,2766.41,3067.50,600.29,610.97,35.31,0000 0000 0000 0000 000000
2017-11-19 10:58:48,0.03,1.55,0.00,18.02,21.64,24.99,14.33,49.08,1024.02,2050.03,2805.82,2765.89,3066.75,600.11,610.80,35.36,0000 0000 0000 0000 000000
2017-11-19 11:03:49,0.06,1.56,0.00,17.99,21.62,24.95,14.29,49.03,1023.97,2050.06,2804.75,2765.07,3065.97,599.54,610.18,35.41,0000 0000 0000 0000 000000
2017-11-19 11:08:51,0.08,1.56,0.00,17.99,21.61,24.96,14.37,48.97,1023.96,2050.23,2803.66,2764.50,3065.11,600.15,610.80,35.46,0000 0000 0000 0000 000000
2017-11-19 11:13:52,0.07,1.56,0.00,17.94,21.59,24.96,14.38,49.04,1023.95,2050.46,2802.56,2763.93,3064.37,600.33,611.18,35.51,0000 0000 0000 0000 000000
2017-11-19 11:18:53,0.10,1.57,0.00,17.94,21.57,24.91,14.35,49.02,1023.94,2050.84,2801.51,2763.11,3063.71,599.84,610.64,35.56,0000 0000 0000 0000 000000
2017-11-19 11:23:55,0.04,1.57,0.00,17.90,21.56,24.91,14.41,49.10,1023.93,2050.96,2800.51,2762.76,3062.97,600.31,611.14,35.61,0000 0000 0000 0000 000000
2017-11-19 11:28:56,0.05,1.57,0.00,17.93,21.54,24.88,14.37,49.11,1023.87,2050.98,2799.48,2762.03,3062.12,599.99,610.74,35.66,0000 0000 0000 0000 000000
2017-11-19 11:33:57,0.06,1.57,0.00,17.89,21.53,24.87,14.31,49.15,1023.55,2050.99,2798.50,2761.53,3061.50,599.91,610.42,35.72,0000 0000 0000 0000 000000
2017-11-19 11:38:58,0.04,1.58,0.00,17.91,21.52,24.83,14.30,49.20,1023.49,2050.99,2797.46,2760.98,3060.72,600.19,610.85,35.77,0000 0000 0000 0000 000000
2017-11-19 11:44:00,0.05,1.58,0.00,17.89,21.49,24.82,14.40,49.11,1023.46,2050.99,2796.44,2760.16,3059.96,600.40,611.00,35.82,0000 0000 0000 0000 000000
2017-11-19 11:49:02,0.06,1.58,0.00,17.90,21.48,24.80,14.34,49.11,1023.45,2050.99,2795.40,2759.50,3059.06,600.35,610.87,35.87,0000 0000 0000 0000 000000
2017-11-19 11:54:03,0.06,1.59,0.00,17.88,21.47,24.80,14.35,49.23,1023.45,2051.00,2794.30,2758.68,3058.12,599.83,610.37,35.92,0000 0000 0000 0000 000000
2017-11-19 11:59:04,0.05,1.59,0.00,17.86,21.45,24.77,14.27,49.14,1023.45,2051.01,2793.16,2757.99,3057.20,600.20,610.72,35.97,0000 0000 0000 0000 000000
2017-11-19 12:04:05,0.07,1.59,0.00,17.83,21.44,24.76,14.32,49.21,1023.45,2051.02,2792.08,2757.18,3056.30,600.07,610.76,36.02,0000 0000 0000 0000 000000
2017-11-19 12:09:06,0.06,1.60,0.00,17.83,21.42,24.77,14.36,49.23,1023.45,2051.03,2790.94,2756.46,3055.45,599.89,610.57,36.07,0000 0000 0000 0000 000000
2017-11-19 12:14:07,0.40,1.60,0.00,17.78,21.41,24.74,14.36,49.13,1023.45,2051.04,2786.67,2753.63,3052.12,599.70,610.54,36.12,0000 0000 0000 0000 000000
2017-11-19 12:19:09,0.46,1.64,0.00,17.81,21.39,24.76,14.35,49.23,1023.45,2051.14,2775.48,2746.27,3044.06,599.57,610.39,36.17,0000 0000 0000 0000 000000
2017-11-19 12:24:10,0.09,1.64,0.00,17.81,21.37,24.73,14.35,49.09,1023.45,2051.36,2773.99,2745.43,3043.03,600.10,610.77,36.22,0000 0000 0000 0000 000000
2017-11-19 12:29:12,0.07,1.65,0.00,17.79,21.37,24.73,14.27,49.08,1023.45,2051.55,2772.90,2744.64,3042.09,599.81,610.41,36.27,0000 0000 0000 0000 000000
2017-11-19 12:34:13,0.07,1.65,0.00,17.77,21.34,24.69,14.34,49.12,1023.44,2051.74,2771.93,2743.98,3041.11,600.17,610.98,36.32,0000 0000 0000 0000 000000
2017-11-19 12:39:14,0.07,1.66,0.00,17.74,21.33,24.66,14.30,49.06,1023.27,2051.95,2770.94,2743.14,3040.30,600.36,611.16,36.37,0000 0000 0000 0000 000000
2017-11-19 12:44:16,0.07,1.66,0.00,17.73,21.32,24.67,14.38,49.10,1023.12,2051.94,2769.82,2742.31,3039.43,600.13,610.88,36.42,0000 0000 0000 0000 000000
2017-11-19 12:49:17,0.08,1.66,0.00,17.75,21.31,24.65,14.31,49.21,1022.98,2051.97,2768.67,2741.49,3038.24,599.90,610.44,36.47,0000 0000 0000 0000 000000
2017-11-19 12:54:18,0.05,1.67,0.00,17.70,21.29,24.60,14.38,49.17,1022.96,2051.98,2767.53,2740.82,3037.23,600.36,611.12,36.53,0000 0000 0000 0000 000000